Time,TemperatureF,DewpointF,PressureIn,WindDirection,WindDirectionDegrees,WindSpeedMPH,WindSpeedGustMPH,Humidity,HourlyPrecipIn,Conditions,Clouds,dailyrainin,SoftwareType,DateUTC
2013-01-03 00:02:00,26.0,23.0,30.17,ENE,66,0.0,1.0,87,0.00,,,0.00,,2013-01-03 08:02:00,
2013-01-03 00:11:00,26.0,23.0,30.17,ENE,66,0.0,1.0,87,0.00,,,0.00,,2013-01-03 08:11:00,
2013-01-03 00:22:00,25.0,22.0,30.17,ENE,66,0.0,0.0,88,0.00,,,0.00,,2013-01-03 08:22:00,
2013-01-03 00:32:00,25.0,22.0,30.17,ENE,66,0.0,0.0,88,0.00,,,0.00,,2013-01-03 08:32:00,
2013-01-03 00:42:00,25.0,22.0,30.17,ENE,66,0.0,0.0,88,0.00,,,0.00,,2013-01-03 08:42:00,
2013-01-03 00:52:00,24.0,21.0,30.17,ENE,66,0.0,0.0,88,0.00,,,0.00,,2013-01-03 08:52:00,
2013-01-03 01:02:00,24.0,21.0,30.17,ENE,66,0.0,0.0,88,0.00,,,0.00,,2013-01-03 09:02:00,
2013-01-03 01:12:00,24.0,21.0,30.17,ENE,66,0.0,0.0,88,0.00,,,0.00,,2013-01-03 09:12:00,
2013-01-03 01:22:00,23.0,21.0,30.16,ENE,66,0.0,0.0,90,0.00,,,0.00,,2013-01-03 09:22:00,
2013-01-03 01:33:00,23.0,21.0,30.17,ENE,66,0.0,0.0,90,0.00,,,0.00,,2013-01-03 09:33:00,
2013-01-03 01:52:00,23.0,21.0,30.17,ENE,66,0.0,0.0,91,0.00,,,0.00,,2013-01-03 09:52:00,
2013-01-03 02:02:00,23.0,21.0,30.16,ENE,66,0.0,0.0,91,0.00,,,0.00,,2013-01-03 10:02:00,
2013-01-03 02:22:00,23.0,21.0,30.16,ENE,66,0.0,0.0,92,0.00,,,0.00,,2013-01-03 10:22:00,
2013-01-03 02:32:00,24.0,22.0,30.17,ENE,66,0.0,1.0,91,0.00,,,0.00,,2013-01-03 10:32:00,
2013-01-03 02:42:00,24.0,22.0,30.17,ENE,66,0.0,1.0,91,0.00,,,0.00,,2013-01-03 10:42:00,
2013-01-03 02:52:00,24.0,22.0,30.18,ENE,66,0.0,0.0,90,0.00,,,0.00,,2013-01-03 10:52:00,
2013-01-03 03:02:00,23.0,20.0,30.17,ENE,66,0.0,2.0,89,0.00,,,0.00,,2013-01-03 11:02:00,
2013-01-03 03:22:00,24.0,21.0,30.17,SE,133,0.0,3.0,88,0.00,,,0.00,,2013-01-03 11:22:00,
2013-01-03 03:32:00,27.0,23.0,30.17,SSE,153,0.0,5.0,84,0.00,,,0.00,,2013-01-03 11:32:00,
2013-01-03 03:42:00,27.0,23.0,30.17,SSE,153,0.0,5.0,84,0.00,,,0.00,,2013-01-03 11:42:00,
2013-01-03 03:52:00,27.0,21.0,30.16,East,96,0.0,4.0,79,0.00,,,0.00,,2013-01-03 11:52:00,
2013-01-03 04:02:00,28.0,22.0,30.16,SE,124,0.0,3.0,79,0.00,,,0.00,,2013-01-03 12:02:00,
2013-01-03 04:12:00,28.0,22.0,30.16,SE,124,0.0,3.0,79,0.00,,,0.00,,2013-01-03 12:12:00,
2013-01-03 04:22:00,27.0,22.0,30.16,SE,124,0.0,0.0,82,0.00,,,0.00,,2013-01-03 12:22:00,
2013-01-03 04:32:00,26.0,22.0,30.15,SE,124,0.0,1.0,83,0.00,,,0.00,,2013-01-03 12:32:00,
2013-01-03 04:42:00,26.0,22.0,30.15,SE,124,0.0,1.0,83,0.00,,,0.00,,2013-01-03 12:42:00,
2013-01-03 04:52:00,25.0,21.0,30.15,SE,124,0.0,2.0,86,0.00,,,0.00,,2013-01-03 12:52:00,
2013-01-03 05:02:00,24.0,21.0,30.14,SE,124,0.0,1.0,87,0.00,,,0.00,,2013-01-03 13:02:00,
2013-01-03 05:12:00,24.0,21.0,30.14,SE,124,0.0,1.0,87,0.00,,,0.00,,2013-01-03 13:12:00,
2013-01-03 05:22:00,24.0,21.0,30.13,SE,124,0.0,1.0,89,0.00,,,0.00,,2013-01-03 13:22:00,
2013-01-03 05:32:00,24.0,21.0,30.13,SE,124,0.0,1.0,89,0.00,,,0.00,,2013-01-03 13:32:00,
2013-01-03 05:42:00,24.0,21.0,30.13,SE,124,0.0,1.0,89,0.00,,,0.00,,2013-01-03 13:42:00,
2013-01-03 05:52:00,24.0,21.0,30.13,SE,124,0.0,1.0,89,0.00,,,0.00,,2013-01-03 13:52:00,
2013-01-03 06:02:00,23.0,21.0,30.12,SE,124,0.0,1.0,90,0.00,,,0.00,,2013-01-03 14:02:00,
2013-01-03 06:12:00,23.0,21.0,30.12,SE,124,0.0,1.0,90,0.00,,,0.00,,2013-01-03 14:12:00,
2013-01-03 06:22:00,23.0,21.0,30.12,SE,124,0.0,0.0,90,0.00,,,0.00,,2013-01-03 14:22:00,
2013-01-03 06:32:00,22.0,20.0,30.12,SE,124,0.0,1.0,90,0.00,,,0.00,,2013-01-03 14:32:00,
2013-01-03 06:42:00,22.0,20.0,30.12,SE,124,0.0,1.0,90,0.00,,,0.00,,2013-01-03 14:42:00,
2013-01-03 06:53:00,22.0,20.0,30.11,SE,124,0.0,0.0,91,0.00,,,0.00,,2013-01-03 14:53:00,
2013-01-03 07:02:00,22.0,20.0,30.10,SE,124,0.0,0.0,91,0.00,,,0.00,,2013-01-03 15:02:00,
2013-01-03 07:33:00,21.0,19.0,30.10,SE,124,0.0,0.0,92,0.00,,,0.00,,2013-01-03 15:33:00,
2013-01-03 07:52:00,21.0,19.0,30.10,SE,124,0.0,0.0,92,0.00,,,0.00,,2013-01-03 15:52:00,
2013-01-03 08:03:00,21.0,19.0,30.11,SE,124,0.0,0.0,93,0.00,,,0.00,,2013-01-03 16:03:00,
2013-01-03 08:33:00,21.0,20.0,30.11,SE,124,0.0,2.0,94,0.00,,,0.00,,2013-01-03 16:33:00,
2013-01-03 08:52:00,22.0,21.0,30.11,SE,124,0.0,1.0,94,0.00,,,0.00,,2013-01-03 16:52:00,
2013-01-03 09:02:00,23.0,22.0,30.11,SE,124,0.0,1.0,94,0.00,,,0.00,,2013-01-03 17:02:00,
2013-01-03 09:12:00,23.0,22.0,30.11,SE,124,0.0,1.0,94,0.00,,,0.00,,2013-01-03 17:12:00,
2013-01-03 09:22:00,24.0,22.0,30.11,SE,124,0.0,1.0,93,0.00,,,0.00,,2013-01-03 17:22:00,
2013-01-03 09:32:00,24.0,22.0,30.11,SE,124,0.0,0.0,92,0.00,,,0.00,,2013-01-03 17:32:00,
2013-01-03 09:52:00,26.0,24.0,30.11,ESE,107,0.0,2.0,91,0.00,,,0.00,,2013-01-03 17:52:00,
2013-01-03 10:03:00,30.0,27.0,30.11,SSW,200,1.0,4.0,90,0.00,,,0.00,,2013-01-03 18:03:00,
2013-01-03 10:12:00,30.0,27.0,30.11,SSW,200,1.0,4.0,90,0.00,,,0.00,,2013-01-03 18:12:00,
2013-01-03 10:22:00,33.0,28.0,30.11,SSW,209,0.0,4.0,82,0.01,,,0.01,,2013-01-03 18:22:00,
2013-01-03 10:33:00,36.0,29.0,30.11,SSW,209,0.0,3.0,76,0.01,,,0.01,,2013-01-03 18:33:00,
2013-01-03 10:53:00,38.0,28.0,30.11,SSW,209,1.0,4.0,68,0.01,,,0.01,,2013-01-03 18:53:00,
2013-01-03 11:03:00,40.0,29.0,30.11,SSW,209,0.0,3.0,64,0.01,,,0.01,,2013-01-03 19:03:00,
2013-01-03 11:12:00,40.0,29.0,30.11,SSW,209,0.0,3.0,64,0.01,,,0.01,,2013-01-03 19:12:00,
2013-01-03 11:56:00,45.0,27.0,30.11,SE,139,0.0,3.0,48,0.00,,,0.01,,2013-01-03 19:56:00,
2013-01-03 12:02:00,46.0,26.0,30.10,SE,131,0.0,2.0,46,0.00,,,0.01,,2013-01-03 20:02:00,
2013-01-03 12:12:00,46.0,26.0,30.10,SE,131,0.0,2.0,46,0.00,,,0.01,,2013-01-03 20:12:00,
2013-01-03 12:22:00,46.0,26.0,30.10,South,184,2.0,5.0,46,0.00,,,0.01,,2013-01-03 20:22:00,
2013-01-03 12:33:00,45.0,25.0,30.09,ESE,108,2.0,9.0,45,0.00,,,0.01,,2013-01-03 20:33:00,
2013-01-03 12:42:00,45.0,25.0,30.09,ESE,108,2.0,9.0,45,0.00,,,0.01,,2013-01-03 20:42:00,
2013-01-03 12:53:00,46.0,26.0,30.09,SE,128,1.0,7.0,46,0.00,,,0.01,,2013-01-03 20:53:00,
2013-01-03 13:02:00,46.0,25.0,30.09,East,101,4.0,9.0,43,0.00,,,0.01,,2013-01-03 21:02:00,
2013-01-03 13:12:00,46.0,25.0,30.09,East,101,4.0,9.0,43,0.00,,,0.01,,2013-01-03 21:12:00,
2013-01-03 13:22:00,47.0,26.0,30.08,East,98,3.0,7.0,43,0.00,,,0.01,,2013-01-03 21:22:00,
2013-01-03 13:34:00,47.0,25.0,30.08,SE,128,2.0,5.0,42,0.00,,,0.01,,2013-01-03 21:34:00,
2013-01-03 13:45:00,47.0,25.0,30.08,SE,128,2.0,5.0,42,0.00,,,0.01,,2013-01-03 21:45:00,
2013-01-03 13:52:00,47.0,25.0,30.08,ESE,123,4.0,7.0,41,0.00,,,0.01,,2013-01-03 21:52:00,
2013-01-03 14:02:00,47.0,25.0,30.07,East,79,3.0,7.0,41,0.00,,,0.01,,2013-01-03 22:02:00,
2013-01-03 14:12:00,47.0,25.0,30.07,East,79,3.0,7.0,41,0.00,,,0.01,,2013-01-03 22:12:00,
2013-01-03 14:22:00,47.0,25.0,30.07,SSE,157,2.0,8.0,41,0.00,,,0.01,,2013-01-03 22:22:00,
2013-01-03 14:32:00,47.0,25.0,30.07,SE,126,3.0,9.0,42,0.00,,,0.01,,2013-01-03 22:32:00,
2013-01-03 14:42:00,47.0,25.0,30.07,SE,126,3.0,9.0,42,0.00,,,0.01,,2013-01-03 22:42:00,
2013-01-03 14:52:00,47.0,25.0,30.07,ENE,61,1.0,8.0,42,0.00,,,0.01,,2013-01-03 22:52:00,
2013-01-03 15:02:00,46.0,24.0,30.08,East,100,2.0,7.0,42,0.00,,,0.01,,2013-01-03 23:02:00,
2013-01-03 15:12:00,46.0,24.0,30.08,East,100,2.0,7.0,42,0.00,,,0.01,,2013-01-03 23:12:00,
2013-01-03 15:22:00,46.0,24.0,30.08,SE,142,4.0,9.0,41,0.00,,,0.01,,2013-01-03 23:22:00,
2013-01-03 15:32:00,45.0,25.0,30.08,SSE,167,2.0,6.0,45,0.00,,,0.01,,2013-01-03 23:32:00,
2013-01-03 15:42:00,45.0,25.0,30.08,SSE,167,2.0,6.0,45,0.00,,,0.01,,2013-01-03 23:42:00,
2013-01-03 15:52:00,44.0,26.0,30.09,SSE,152,2.0,5.0,49,0.00,,,0.01,,2013-01-03 23:52:00,
2013-01-03 16:02:00,44.0,28.0,30.10,SE,139,2.0,4.0,52,0.00,,,0.01,,2013-01-04 00:02:00,
2013-01-03 16:12:00,44.0,28.0,30.10,SE,139,2.0,4.0,52,0.00,,,0.01,,2013-01-04 00:12:00,
2013-01-03 16:22:00,42.0,27.0,30.11,ESE,113,0.0,4.0,55,0.00,,,0.01,,2013-01-04 00:22:00,
2013-01-03 16:32:00,41.0,25.0,30.11,ENE,70,1.0,4.0,53,0.00,,,0.01,,2013-01-04 00:32:00,
2013-01-03 16:42:00,41.0,25.0,30.11,ENE,70,1.0,4.0,53,0.00,,,0.01,,2013-01-04 00:42:00,
2013-01-03 16:52:00,41.0,25.0,30.10,East,99,0.0,5.0,53,0.00,,,0.01,,2013-01-04 00:52:00,
2013-01-03 17:02:00,40.0,24.0,30.10,East,82,0.0,2.0,53,0.00,,,0.01,,2013-01-04 01:02:00,
2013-01-03 17:12:00,40.0,24.0,30.10,East,82,0.0,2.0,53,0.00,,,0.01,,2013-01-04 01:12:00,
2013-01-03 17:22:00,40.0,24.0,30.11,South,186,1.0,6.0,52,0.00,,,0.01,,2013-01-04 01:22:00,
2013-01-03 17:32:00,40.0,24.0,30.09,East,89,0.0,6.0,53,0.00,,,0.01,,2013-01-04 01:32:00,
2013-01-03 17:42:00,40.0,24.0,30.09,East,89,0.0,6.0,53,0.00,,,0.01,,2013-01-04 01:42:00,
2013-01-03 17:52:00,40.0,22.0,30.09,SE,129,4.0,8.0,49,0.00,,,0.01,,2013-01-04 01:52:00,
2013-01-03 18:02:00,40.0,23.0,30.09,SSW,210,1.0,4.0,50,0.00,,,0.01,,2013-01-04 02:02:00,
2013-01-03 18:12:00,40.0,23.0,30.09,SSW,210,1.0,4.0,50,0.00,,,0.01,,2013-01-04 02:12:00,
2013-01-03 18:22:00,39.0,23.0,30.09,South,170,2.0,5.0,52,0.00,,,0.01,,2013-01-04 02:22:00,
2013-01-03 18:32:00,39.0,23.0,30.08,East,101,2.0,5.0,53,0.00,,,0.01,,2013-01-04 02:32:00,
2013-01-03 18:42:00,39.0,23.0,30.08,East,101,2.0,5.0,53,0.00,,,0.01,,2013-01-04 02:42:00,
2013-01-03 18:52:00,39.0,22.0,30.08,East,90,0.0,6.0,51,0.00,,,0.01,,2013-01-04 02:52:00,
2013-01-03 19:02:00,39.0,21.0,30.09,SSE,148,4.0,14.0,49,0.00,,,0.01,,2013-01-04 03:02:00,
2013-01-03 19:11:00,39.0,21.0,30.09,SSE,148,4.0,14.0,49,0.00,,,0.01,,2013-01-04 03:11:00,
2013-01-03 19:22:00,40.0,22.0,30.11,South,190,4.0,13.0,49,0.00,,,0.01,,2013-01-04 03:22:00,
2013-01-03 19:32:00,39.0,24.0,30.12,SSE,162,2.0,6.0,54,0.00,,,0.01,,2013-01-04 03:32:00,
2013-01-03 19:42:00,39.0,24.0,30.12,SSE,162,2.0,6.0,54,0.00,,,0.01,,2013-01-04 03:42:00,
2013-01-03 19:52:00,38.0,25.0,30.12,ENE,69,2.0,6.0,59,0.00,,,0.01,,2013-01-04 03:52:00,
2013-01-03 20:02:00,37.0,30.0,30.12,East,95,1.0,3.0,76,0.03,,,0.04,,2013-01-04 04:02:00,
2013-01-03 20:11:00,37.0,30.0,30.12,East,95,1.0,3.0,76,0.03,,,0.04,,2013-01-04 04:11:00,
2013-01-03 20:22:00,35.0,30.0,30.11,ENE,66,0.0,3.0,81,0.06,,,0.07,,2013-01-04 04:22:00,
2013-01-03 20:32:00,34.0,30.0,30.12,North,360,2.0,3.0,85,0.07,,,0.08,,2013-01-04 04:32:00,
2013-01-03 20:42:00,34.0,30.0,30.12,North,360,2.0,3.0,85,0.07,,,0.08,,2013-01-04 04:42:00,
2013-01-03 20:52:00,34.0,31.0,30.12,NW,311,1.0,3.0,87,0.07,,,0.08,,2013-01-04 04:52:00,
2013-01-03 21:03:00,34.0,31.0,30.11,East,87,1.0,5.0,88,0.05,,,0.09,,2013-01-04 05:03:00,
2013-01-03 21:12:00,34.0,31.0,30.11,East,87,1.0,5.0,88,0.05,,,0.09,,2013-01-04 05:12:00,
2013-01-03 21:22:00,34.0,31.0,30.11,NE,43,3.0,8.0,88,0.03,,,0.10,,2013-01-04 05:22:00,
2013-01-03 21:33:00,34.0,31.0,30.11,NE,43,3.0,8.0,88,0.03,,,0.10,,2013-01-04 05:33:00,
2013-01-03 21:42:00,34.0,31.0,30.11,NE,43,3.0,8.0,88,0.03,,,0.10,,2013-01-04 05:42:00,
2013-01-03 21:52:00,35.0,32.0,30.12,SSE,150,3.0,8.0,89,0.04,,,0.12,,2013-01-04 05:52:00,
2013-01-03 22:02:00,35.0,32.0,30.12,South,178,1.0,5.0,89,0.03,,,0.12,,2013-01-04 06:02:00,
2013-01-03 22:12:00,35.0,32.0,30.12,South,178,1.0,5.0,89,0.03,,,0.12,,2013-01-04 06:12:00,
2013-01-03 22:22:00,34.0,31.0,30.12,East,94,1.0,6.0,90,0.02,,,0.12,,2013-01-04 06:22:00,
2013-01-03 22:32:00,34.0,32.0,30.13,East,101,2.0,8.0,91,0.02,,,0.13,,2013-01-04 06:32:00,
2013-01-03 22:42:00,34.0,32.0,30.13,East,101,2.0,8.0,91,0.02,,,0.13,,2013-01-04 06:42:00,
2013-01-03 22:52:00,34.0,32.0,30.13,South,181,0.0,4.0,92,0.02,,,0.14,,2013-01-04 06:52:00,
2013-01-03 23:02:00,34.0,32.0,30.13,South,174,3.0,9.0,92,0.02,,,0.14,,2013-01-04 07:02:00,
2013-01-03 23:11:00,34.0,32.0,30.13,South,174,3.0,9.0,92,0.02,,,0.14,,2013-01-04 07:11:00,
2013-01-03 23:22:00,34.0,32.0,30.14,SE,134,1.0,6.0,92,0.02,,,0.14,,2013-01-04 07:22:00,
2013-01-03 23:32:00,34.0,32.0,30.14,SE,133,2.0,7.0,93,0.02,,,0.15,,2013-01-04 07:32:00,
2013-01-03 23:42:00,34.0,32.0,30.14,SE,133,2.0,7.0,93,0.02,,,0.15,,2013-01-04 07:42:00,
2013-01-03 23:52:00,34.0,32.0,30.14,SE,133,2.0,7.0,93,0.02,,,0.15,,2013-01-04 07:52:00,